Regional Weather Roundup
Issued by NWS

Home | Current Version | Previous Version | Text Only | Print | Product List | Glossary On
Versions: 1 2 3 4 5 6 7 8 9 10 11 12 13 14 15 16 17 18 19 20 21 22 23 24 25 26
000
ASUS45 KCYS 180710
RWRWY

WYOMING REGIONAL WEATHER ROUNDUP
NATIONAL WEATHER SERVICE CHEYENNE WY
1200 AM MST SUN FEB 18 2018

NOTE:  "FAIR" INDICATES FEW OR NO CLOUDS BELOW 12,000 FEET
WITH NO SIGNIFICANT WEATHER AND/OR OBSTRUCTIONS TO VISIBILITY.

WYZ001-180800-
YELLOWSTONE NATIONAL PARK

CITY           SKY/WX    TMP DP  RH WIND       PRES   REMARKS
LK YELLOWSTONE   N/A     28  23  81 VRB7G21   29.46F WCI  21
W YELLOWSTONE  NOT AVBL

$$
WYZ002>013-054>058-071-098>099-180800-
NORTHERN WYOMING

CITY           SKY/WX    TMP DP  RH WIND       PRES   REMARKS
JACKSON        LGT SNOW  30  30 100 S24G33    29.55S VSB 1   WCI  16
CODY           FAIR      38  29  70 W10G20    29.39F WCI  31
GREYBULL       MOCLDY    24  20  84 W6        29.40F WCI  17
WORLAND        FAIR      39  24  55 S22       29.40F WCI  29
SHERIDAN       FAIR      23  19  85 NW7       29.41F WCI  15
BUFFALO        FAIR      45  21  38 W23G33    29.39S
GILLETTE       FAIR      40  22  48 SW21      29.42F WCI  30
HULETT         PTSUNNY   27  19  74 CALM      29.44F
NEWCASTLE      FAIR      36  19  51 E15       29.50F WCI  26

$$
WYZ014>020-022>026-101>103-180800-
CENTRAL WYOMING

CITY           SKY/WX    TMP DP  RH WIND       PRES   REMARKS
BIG PINEY      CLOUDY    34  15  46 S13       29.64F WCI  25
PINEDALE       CLOUDY    34  21  60 S20G25    29.64F WCI  22
DUBOIS           N/A    N/A N/A N/A MISG        N/A
LANDER         MOCLDY    44  21  40 SE10G29   29.46F
RIVERTON       FAIR      41  19  41 S9        29.50F
CASPER         LGT RAIN  42  12  29 SW28G41   29.54F
DOUGLAS        FAIR      47  14  26 W21G36    29.49F

$$
WYZ021-027>030-104>119-180800-
SOUTHERN WYOMING

CITY           SKY/WX    TMP DP  RH WIND       PRES   REMARKS
EVANSTON       FAIR      36  15  42 S12       29.71F WCI  28
FORT BRIDGER   FAIR      39  13  35 SW15G22   29.71F WCI  30
ROCK SPRINGS   FAIR      42   7  23 SW20      29.68F
DIXON          FAIR      37  17  44 S21G30    29.82F WCI  27
RAWLINS        FAIR      38   8  29 SW37G48   29.65F WCI  25
SARATOGA       FAIR      34  12  40 S12G20    29.75F WCI  25
LARAMIE        FAIR      34   7  32 SW16      29.70F WCI  24
CHEYENNE       FAIR      40   4  22 SW14      29.70F WCI  32
TORRINGTON     FAIR      47  11  23 SW13G21   29.59F
PINE BLUFFS    FAIR      28  18  64 S12       29.69F WCI  18

$$




USA.gov is the U.S. government's official web portal to all federal, state and local government web resources and services.